Tracking 29892 objects as of 21-Nov-2024
HD Live streaming from Space Station
objects crossing your sky now

OSCAR 25

Track OSCAR 25 now!
10-day predictions
OSCAR 25 is classified as:


NORAD ID: 19419
Int'l Code: 1988-074A
Perigee: 1,036.6 km
Apogee: 1,177.5 km
Inclination: 90.0 °
Period: 107.3 minutes
Semi major axis: 7478 km
RCS: 1.4853 m2 (large)
Launch date: August 25, 1988
Source: United States (US)
Launch site: AIR FORCE WESTERN TEST RANGE (AFWTR)
Your satellite tracking list
Your tracking list is empty




NASA's NSSDC Master Catalog

Two Line Element Set (TLE):
1 19419U 88074A   24325.59695060  .00000157  00000-0  25650-3 0  9991
2 19419  90.0262  19.1011 0094234 270.7545 256.5989 13.42522457774726
Source of the keplerian elements: AFSPC